Location: La Pernelle
(49.6188°N, 1.2999°W)
Time: 17:42:22
(UTC+00:00)

NOSS 3-2 (A) - Visible Passes

Search period start: 16 October 2021 00:00
Search period end: 26 October 2021 00:00
Orbit: 767 x 1440 km, 63.4° (Epoch: 11 October)

Date Brightness Start Highest point End Pass type
(mag) Time Alt. Az. Time Alt. Az. Time Alt. Az.
16 Oct 5.1 18:35:19 10° WNW 18:40:37 27° N 18:46:38 10° NE visible
16 Oct 5.0 20:27:39 10° NW 20:33:38 31° NNE 20:34:23 30° NNE visible
16 Oct 5.4 22:18:37 10° NW 22:21:44 29° NNW 22:21:44 29° NNW visible
17 Oct 5.0 17:49:15 10° WNW 17:54:35 30° NNW 18:00:44 10° NE visible
17 Oct 5.1 19:41:57 10° NW 19:47:37 28° N 19:50:13 23° NE visible
17 Oct 5.0 21:33:12 10° NW 21:37:36 37° NNW 21:37:36 37° NNW visible
17 Oct 6.2 23:24:03 10° NW 23:24:58 14° NW 23:24:58 14° NW visible
18 Oct 5.2 18:56:07 10° NW 19:01:32 26° N 19:06:05 15° NE visible
18 Oct 4.7 20:47:45 10° NW 20:53:28 39° NNE 20:53:28 39° NNE visible
18 Oct 5.7 22:38:33 10° NW 22:40:51 23° NW 22:40:51 23° NW visible
19 Oct 5.1 18:10:10 10° WNW 18:15:28 26° N 18:21:29 10° NE visible
19 Oct 4.8 20:02:15 10° NW 20:08:27 34° NNE 20:09:21 33° NE visible
19 Oct 5.2 21:53:07 10° NW 21:56:44 34° NW 21:56:44 34° NW visible
20 Oct 5.0 19:16:37 10° NW 19:22:27 29° NNE 19:25:15 23° NE visible
20 Oct 4.7 21:07:43 10° NW 21:12:38 44° NNW 21:12:38 44° NNW visible
20 Oct 6.1 22:58:39 10° NW 23:00:01 17° NW 23:00:01 17° NW visible
21 Oct 5.1 18:30:52 10° NW 18:36:24 27° N 18:41:10 15° NE visible
21 Oct 4.5 20:22:17 10° NW 20:28:33 45° NNE 20:28:33 45° NNE visible
21 Oct 5.6 22:13:06 10° NW 22:15:56 27° NW 22:15:56 27° NW visible
22 Oct 5.1 17:44:58 10° NW 17:50:18 26° N 17:56:23 10° NE visible
22 Oct 4.7 19:36:49 10° NW 19:43:14 37° NNE 19:44:31 35° NE visible
22 Oct 4.9 21:27:38 10° NW 21:31:54 41° NW 21:31:54 41° NW visible
22 Oct 6.4 23:19:06 10° WNW 23:19:16 11° WNW 23:19:16 11° WNW visible
23 Oct 4.9 18:51:15 10° NW 18:57:16 31° NNE 19:00:30 23° ENE visible
23 Oct 4.4 20:42:13 10° NW 20:47:52 55° N 20:47:52 55° N visible
23 Oct 5.9 22:33:17 10° NW 22:35:15 19° WNW 22:35:15 19° WNW visible
24 Oct 5.0 18:05:34 10° NW 18:11:15 28° NNE 18:16:29 14° ENE visible
24 Oct 4.2 19:56:48 10° NW 20:03:46 51° NE 20:03:53 51° NE visible
24 Oct 5.3 21:47:40 10° NW 21:51:17 32° WNW 21:51:17 32° WNW visible
25 Oct 5.0 17:19:45 10° NW 17:25:10 26° N 17:31:20 10° ENE visible
25 Oct 4.5 19:11:21 10° NW 19:17:58 41° NNE 19:19:56 35° ENE visible
25 Oct 4.6 21:02:10 10° NW 21:07:19 51° NW 21:07:19 51° NW visible
25 Oct 6.3 22:53:58 10° WNW 22:54:43 12° WNW 22:54:43 12° WNW visible
